Regional Weather Roundup
Issued by NWS Burlington, VT

Home | Current Version | Previous Version | Text Only | Print | Product List | Glossary On
Versions: 1 2 3 4 5 6 7 8 9 10 11 12 13 14 15 16 17 18 19 20 21 22 23 24 25 26 27 28 29 30 31 32 33 34 35 36 37 38 39 40 41 42 43 44 45 46 47 48 49 50
000
ASUS41 KBTV 301330
RWRBTV
VERMONT REGIONAL WEATHER ROUNDUP
NATIONAL WEATHER SERVICE BURLINGTON VT
800 AM EST FRI JAN 30 2015

NOTE: "FAIR" INDICATES FEW OR NO CLOUDS BELOW 12,000 FEET WITH NO
SIGNIFICANT WEATHER AND/OR OBSTRUCTIONS TO VISIBILITY.

* THESE REPORTS ARE NOT UNDER NWS QUALITY CONTROL AND/OR DO NOT
  REPORT WEATHER SUCH AS PRECIPITATION AND FOG.

VTZ001>019-301400-
_____VERMONT_____


CITY           SKY/WX    TMP DP  RH WIND       PRES   REMARKS
BURLINGTON     LGT SNOW  28  25  88 S5        29.81R FOG
MONTPELIER     LGT SNOW  23  21  92 CALM      29.80S FOG
MORRISVILLE    LGT SNOW N/A N/A N/A CALM      29.80S
ST. JOHNSBURY*   N/A     26  24  92 MISG      29.78S
LYNDONVILLE*   LGT SNOW  25  22  90 CALM      29.78S
MIDDLEBURY*    LGT SNOW  28  28 100 S5        29.80R
RUTLAND*       CLOUDY    27  21  80 SE3       29.78S
SPRINGFIELD    CLOUDY    24  22  91 CALM      29.81S
HIGHGATE*      LGT SNOW  28  26  93 S5        29.81R
NEWPORT*       LGT SNOW  24  22  91 S3        29.78S
BENNINGTON     LGT SNOW  28  25  88 SW5       29.79S VSB 3/4
SUTTON*          N/A     23 N/A N/A MISG        N/A
GALLUP MILLS*    N/A     23 N/A N/A MISG        N/A
UNION VILLAGE*   N/A     25 N/A N/A MISG        N/A
MT. MANSFIELD*   N/A     18 N/A N/A CALM        N/A

_____LAKE CHAMPLAIN_____


CITY           SKY/WX    TMP DP  RH WIND       PRES   REMARKS
BURTON ISLAND*   N/A     28  28 100 S10         N/A  WCI  19
COLCHESTER RF*   N/A     30  30 100 SW16        N/A  WCI  19
DIAMOND ISL*     N/A     28  28 100 S1          N/A

$$

NYZ007-026>031-035-052-083-301400-
_____NORTHERN NEW YORK_____


CITY           SKY/WX    TMP DP  RH WIND       PRES   REMARKS
PLATTSBURGH    LGT SNOW  27  25  92 CALM      29.81R FOG
SARANAC LAKE   LGT SNOW  21  18  88 VRB7      29.74R FOG
MASSENA        FLURRIES  23  19  85 W12G22    29.90R WCI  12
OGDENSBURG*    PTSUNNY   18  12  79 NW17G24   29.94  WCI   2
STARK FALLS*     N/A     18 N/A N/A NW8         N/A
WATERTOWN      CLOUDY    25  17  72 NW9       29.93R
ALBANY         LGT SNOW  28  24  85 S6        29.84S VSB 1
GLENS FALLS    CLOUDY    27  23  85 SW8       29.82R

$$
NHZ002-005-011-301400-
_____NEW HAMPSHIRE_____


CITY           SKY/WX    TMP DP  RH WIND       PRES   REMARKS
LEBANON        CLOUDY    27  24  89 CALM      29.80S
KEENE          CLOUDY    27  27 100 CALM      29.80S
MT WASHINGTON  SNOW       9   9 100 W23         N/A  VSB 1/16WCI -12
PLYMOUTH       LGT SNOW  25  25 100 CALM      29.82F
WHITEFIELD     LGT SNOW  26  23  88 CALM      29.77S VSB 3/4

$$

_____REGIONAL QUEBEC LOCATIONS_____


CITY           SKY/WX    TMP DP  RH WIND       PRES   REMARKS
MONTREAL       LGT SNOW  25  21  86 NW9       29.81R
QUEBEC CITY    LGT SNOW  23  21  93 NE8       29.81S
SHERBROOKE     LGT SNOW  27  25  93 CALM      29.77S

_____REGIONAL ONTARIO LOCATIONS_____


CITY           SKY/WX    TMP DP  RH WIND       PRES   REMARKS
OTTAWA         FLURRIES  14   9  79 N22       29.94R WCI  -4

______KEY______
VSB  - VISIBILITY IN MILES
WCI  - WIND CHILL INDEX
HX   - HEAT INDEX
$$
NNNN



USA.gov is the U.S. government's official web portal to all federal, state and local government web resources and services.